TIMESTAMP,CO2_1_1_1,H2O_1_1_1,TAU_1_1_1,TAU_SSITC_TEST_1_1_1,H_1_1_1,H_SSITC_TEST_1_1_1,LE_1_1_1,LE_SSITC_TEST_1_1_1,FC_1_1_1,FC_SSITC_TEST_1_1_1,WD_0_0_1,WS_0_0_1,WS_MAX_0_0_1,U_SIGMA_0_0_1,V_SIGMA_0_0_1,W_SIGMA_0_0_1,USTAR_0_0_1,MO_LENGTH_0_0_1,ZL_0_0_1,FETCH_MAX_0_0_1,FETCH_70_0_0_1,FETCH_80_0_0_1,FETCH_90_0_0_1,PA_0_0_1,RH_0_0_1,TA_0_0_1,VPD_0_0_1,T_SONIC_0_0_1,T_SONIC_SIGMA_0_0_1
[yyyymmddHHMMSS],[mmolCO2 mol-1],[mmolH2O mol-1],[kg m-1 s-2],[#],[W m-2],[#],[W m-2],[#],[umolCO2 m-2 s-1],[#],[Decimal degrees],[m s-1],[m s-1],[m s-1],[m s-1],[m s-1],[m s-1],[m],[#],[m],[m],[m],[m],[kPa],[%],[deg C],[hPa],[deg C],[deg C]
20240527003000,416.86321525373972,11.913770776600305,0.24506340194515935,0,-21.586626025431588,0,25.632199361084893,0,-6.6404228923830369E-002,2,28.245802419569969,2.8669636247230694,6.8481997008502358,1.0421495944377093,0.78697790574245363,0.52765798811107334,0.46386302809594476,385.68498592466489,4.9263001395940351E-002,112.94959890020333,206.50789021650857,247.13720173806007,309.38645020884951,93.898015049696184,76.043333333333337,12.776333333333355,3.5252293332560294,13.608149370829324,0.11940980918551497
20240527010000,417.91313799084480,11.888192177045610,0.32169507627194066,0,-21.669720647574508,0,20.546566950997278,0,0.77333515126098717,1,18.231730292490738,3.3050232785916815,8.0340070203469001,1.3083771545698135,0.84860003018931995,0.58928480634159686,0.53131553129974185,577.29389671075330,3.2912178888874932E-002,115.25949538186191,210.73111768867793,252.19132639489993,315.71361453496354,93.882293189019109,76.885666666666665,12.572999999999979,3.3562319937308600,13.398748758528029,0.17669281927923924
20240527013000,418.64050694487793,11.950425693429219,0.38584306179657241,0,-21.951305766103086,0,9.9893122069105331,0,1.7460092928339652,0,12.911124028103046,3.3416121433207140,8.9308316561904473,1.3312487987599038,0.94939100237713792,0.68245380374559272,0.58168820494483275,747.67931225769428,2.5411964312116050E-002,110.19160247858990,201.46539313995589,241.10262060915002,301.83187072490097,93.855000968532991,78.705333333333328,12.292000000000030,3.0354561070897854,13.089159126281743,0.17101936094199752
20240527020000,419.43252860574830,12.260045769523439,0.58055392564353880,0,-13.533630415233997,0,9.3438019861835073,0,2.3678121028473256,0,14.761231403238213,3.7969834758145176,10.165318663468808,1.6138216213846830,1.0074334259672793,0.78167355691676188,0.71322154907597113,2235.1714067709245,8.5004666498703328E-003,116.36279074872144,212.74829349730666,254.60537064393836,318.73571147384808,93.832731627821175,82.553333333333327,11.951999999999998,2.4318723788165335,12.774416559431302,0.11063303083528601
20240527023000,419.77199478313690,12.461260501467013,0.56415182658128582,0,-10.244826934457087,0,7.1527847898585151,0,2.9640601119453174,0,13.163923997064927,3.3926783925761375,9.5712091541543955,1.5362097856526500,0.97995024013113408,0.72793016129616361,0.70296748763631134,2827.3995754406178,6.7199557377874575E-003,121.76748037968348,222.62978988005304,266.43099804469455,333.53999369959854,93.838770000477709,84.413333333333327,11.862000000000023,2.1597473933110471,12.713397139117603,8.6127733793630243E-002
20240527030000,419.87875278837220,12.583624282655778,0.32572927661136297,0,-4.5000889206870749,0,3.5221605242168197,0,2.0931285684631660,0,6.8229472460722604,2.9900932480551776,8.2086142431794951,1.2216671780126385,0.83535668223370052,0.61577073105732405,0.53406979655366127,2822.5869742090413,6.7314134776393451E-003,111.73727619723914,204.29137766499511,244.48460231910317,306.06571050521330,93.832726542317701,85.916666666666671,11.741666666666674,1.9359966318846433,12.597657253265425,9.4492504697653010E-002
20240527033000,420.65406992833886,12.690657285291044,0.36130580268581353,0,-8.9999136685047318,1,2.8638000826134418,1,2.8256968807640059,0,6.5931410033067834,3.0943534066301162,8.4735330345438484,1.2810909413785252,0.91104095242358629,0.62036812778568673,0.56229504013406917,1646.8999115612960,1.1536827384966945E-002,115.74619422388697,211.62095839653398,253.25623845371570,317.04675806553894,93.812263209852418,88.136666666666670,11.480666666666650,1.6029143633492118,12.356914166768433,0.12462372201701946
20240527040000,421.38313743260829,12.695079409579456,0.25988006721204343,0,-9.0095746765283558,0,1.7959666269257162,1,2.0927295134858577,0,358.93817133198371,2.8619888720962208,7.0192917872315252,1.0254591102769974,0.80038645463928970,0.58811791952854009,0.47676429181868590,1002.5555323736922,1.8951568652775582E-002,105.85864885946664,193.54337199952033,231.62198461647989,289.96323947527094,93.779079146484378,89.576666666666668,11.235999999999990,1.3857012033090406,12.129248027801509,9.4498866163537240E-002
20240527043000,422.04868015664152,12.487385383741962,0.28057930552478799,0,-13.386882564351492,0,3.3074243500286529,0,2.5177991807038471,0,359.65335910033764,2.9397139495172175,7.7352955400542225,1.1020310442950096,0.87444066616773175,0.59331576465982150,0.49519284982791401,755.99443774696090,2.5132460043786057E-002,108.35418295057165,198.10600422783665,237.08229008124340,296.79889397373734,93.776228720052089,89.343333333333334,11.026333333333355,1.3971401958408023,11.898172404819093,0.12524973648539101
20240527050000,422.59927951277757,12.178356212238588,0.26814126827881785,0,-9.1162634610601359,0,-4.7244561514821291,1,2.3724493925661130,0,358.51362518291904,2.8694450291082676,6.5727108442550293,1.0138029250078537,0.84396096565267953,0.60707836897946577,0.48396903303972599,1036.3099476353264,1.8334283139281444E-002,104.45113225287953,190.96998273828163,228.54229492356535,286.10783342901533,93.777094002009122,87.766666666666666,10.917333333333318,1.5922715222072135,11.763661484507452,8.5818609042610336E-002
20240527053000,423.14865571670714,11.922420283532492,0.22316911900651124,0,-5.0846507148193671,0,5.5193364684775821,1,1.5558971462115982,0,357.67924527139894,2.9349805046280726,7.1495054605104027,1.0215544179050591,0.78927384275403456,0.53784594290983412,0.44150707337317263,1410.3861576695649,1.3471487859321044E-002,106.92486604464895,195.49275706656360,233.95490066183746,292.88377353016995,93.762516125434033,86.116666666666660,10.881000000000029,1.8026719439592649,11.696641922844776,9.8334438066314409E-002
20240527060000,424.57271282938831,11.822779969541577,0.29090586762521015,0,-8.1841263981975239,0,0.97944398302872004,0,1.7643549954024071,0,347.56092854842052,3.3423360117014274,7.9241138557826734,1.0719877623055929,0.73469182478598827,0.57161425672450517,0.50391286334748120,1302.5912290220849,1.4586310407037036E-002,113.20270744886750,206.97065336829792,247.69101103939380,310.07975373671695,93.743522582248261,86.706666666666663,10.649333333333345,1.6996471078392119,11.449167577955450,0.12109957100658369
20240527063000,426.49239045900657,11.845847550933362,0.30817942890740602,0,-6.2966723156783351,0,2.4900080509217024,1,1.2865915798860372,1,342.55019872682544,3.1222568716086272,6.8098200268402191,1.1406607165347817,0.70621061126809492,0.51493382022315037,0.51845725935370424,1843.9885052530185,1.0303751864978660E-002,125.89953737624768,230.18450792175915,275.47206603870592,344.85833797594404,93.748388977864579,88.090000000000003,10.442000000000007,1.5018673752819154,11.247691532052158,9.4188573782517784E-002
20240527070000,426.67899212117698,11.805630934461478,0.28890190864388621,0,-5.4586713408566956,1,2.0481908854274389,2,2.9008498328946835,0,340.79354650549465,2.9290214553730642,6.7304772915965998,1.0719183982384071,0.69458501986148458,0.53246821251694221,0.50192495545259397,1929.9083851633088,9.8450269173747437E-003,119.43482626118717,218.36495418956829,261.32707897741841,327.15049268043799,93.742470282335063,88.230000000000004,10.366333333333330,1.4767339484208173,11.164185349358490,0.10136619110717149
20240527073000,425.54587090879710,11.685822370661468,0.33145973109335108,0,-9.1073472384605036,1,16.744880101522710,1,4.9367867213728625,1,342.06848056385957,2.8908517568990333,6.6959474223319049,1.1359603725901388,0.67713761574917508,0.54928054971455187,0.53742701084195010,1419.8042090728322,1.3382126830295479E-002,123.04815757497624,224.97127624409029,269.23315919848534,337.04796694760569,93.731966918748611,88.659999999999997,10.139333333333354,1.4013570993182658,10.937536523929964,9.1227987656015391E-002
20240527080000,425.02972050531218,11.353019087873287,0.26087741539265896,0,-21.872740112333094,0,1.9651239061413561,2,2.5415539740281483,0,342.87816171248187,3.1181428584447688,8.5069427123559329,1.0899052890803080,0.70514310109063283,0.52269996632968052,0.47660925576909863,412.26727135294624,4.6086607694196285E-002,116.30085293480721,212.63505141941889,254.46984879913694,318.56605420576386,93.719621467447908,87.343333333333334,9.9293333333333180,1.5422257617506920,10.708850457085532,0.15426247064423035
20240527083000,425.17557793558461,11.152613755160278,0.21066446890799034,0,-19.459545557250134,0,-0.42235635688342688,2,2.1196870076473822,0,346.93311385260972,2.8581728435650553,6.8206188892303503,1.0340740868833467,0.63695925421289390,0.46059867544456840,0.42819146204072600,336.00074075618545,5.6547494381231446E-002,118.11557126300065,215.95293529808205,258.44050840253010,323.53684885360298,93.713628994357634,86.543333333333337,9.8000000000000114,1.6255479060153084,10.576479665968179,0.10992765593304445
20240527090000,425.47649263649117,10.950628244497201,0.18975564512489787,0,-28.204138025506623,0,0.48113768077930485,1,2.2394309081995374,0,350.96872105319511,2.5453449290995107,6.2777145565975294,0.91198759944846175,0.61870124714226515,0.44450322080614157,0.40636868902392420,198.14088620493885,9.5891364795593639E-002,116.54433292367173,213.08021049302283,255.00259051502701,319.23298361662648,93.708330960720488,85.083333333333329,9.7803333333333171,1.7995379364350335,10.548260904947938,0.13910687918219708
20240527093000,425.29635216325505,10.748389482774527,0.15610298892954064,0,-32.938463044912204,0,0.30432686104081463,2,2.1202503045433461,0,349.49259593232830,2.6615298287011058,6.5295968347051492,0.90477108597074596,0.59711425361832782,0.42397406655799680,0.36848701385400739,126.50302455751664,0.15019403738731435,111.92348265576437,204.63182245868322,244.89202778633430,306.57575884332192,93.716536065972221,84.036666666666662,9.6883333333333326,1.9139512297344958,10.450340661790676,0.17480495105763280
20240527100000,426.45376775629688,10.705297952156430,0.24144424405063170,0,-40.578762495014601,0,0.12066454383576418,2,2.2979387316509370,0,344.64836883210228,2.7283698907735809,6.2573809991175438,1.0327457381812706,0.57346844351977666,0.44344199994040012,0.45806436240804083,197.23200061421889,9.6333251910594109E-002,128.50695832165823,234.95170500422790,281.17718338729713,352.00046790252782,93.705750075967515,85.316666666666663,9.4019999999999868,1.7269201568479708,10.163156389068035,0.21423836512986347
20240527103000,428.11270429488292,10.690518026527434,0.13058703921216883,0,-25.112681179062005,0,-0.46273388839764473,0,1.4619581744188201,0,347.95642156585086,2.7315536452031575,6.2215858739293672,0.87175498124348016,0.61905058163441284,0.41374730980350166,0.33659187534009716,126.45308246766403,0.15025335586310115,106.15724921791106,194.08930868845653,232.27533139896059,290.78115211798718,93.711603756076400,87.856666666666669,8.9473333333333471,1.3850702286979197,9.7257502763536081,0.17031936191133190
20240527110000,428.72110316541642,10.634313170730989,0.15014620666694231,0,-19.381334908068006,0,0.78061014391695971,1,0.99848368015238065,0,346.31814127760424,2.5182479786060585,5.5375122258069176,0.83702943482572223,0.56158586292973511,0.40326966834534883,0.36075530821801333,201.73315503586960,9.4183824154347187E-002,114.53774734400294,209.41153208574141,250.61211945505059,313.73663484178479,93.716751113498262,88.803333333333342,8.7116666666666447,1.2569055120010477,9.4907814441257869,0.14985549184986729
20240527113000,429.30943497273324,10.664167731729568,0.14733101876323668,0,-8.0102152804960838,0,1.3906001273228399,2,0.46950282015641143,1,337.04720599922064,2.9276195662799704,5.9673915055210687,0.96212976787923543,0.63848431024308760,0.40556304492448642,0.35726901330009853,474.15125827914017,4.0071600925319924E-002,113.13695353845807,206.85043424893533,247.54713945790832,309.89964358912005,93.732084848958337,89.650000000000006,8.6153333333333535,1.1543081963179942,9.3902180879381376,9.9051294445358193E-002
20240527120000,428.13755826498971,10.834192670284246,0.15444126005903461,0,-12.034725103835871,1,-4.6252032253962776,1,0.82890807029640468,1,327.04416356409746,2.7319884056807520,5.9746782748780998,0.83883340144783336,0.74362884950133012,0.46131924439220767,0.36593194314726740,339.15903451161086,5.6020916639770504E-002,104.03366527664214,190.20671996145654,227.62886431973899,284.96432670464327,93.746936281032987,89.579999999999998,8.8629999999999995,1.1817531764196758,9.6275748028225507,0.16099561471831791
20240527123000,427.02261567605314,11.155415730357314,0.22146602746607738,0,16.078639683657322,1,8.3326809173497818,1,-1.5474337432552630,0,318.17247619057321,2.9701082469104834,6.8524469544361137,1.0345600133490880,0.80649910177992923,0.55237444996026330,0.43862500080635103,-437.28409117910667,-4.3450014265938190E-002,104.12205710583441,190.36832841634802,227.82226836486879,285.20644561898689,93.766939177954384,88.756666666666661,9.4363333333333230,1.3253973002821136,10.187606624542695,0.17326523311183209
20240527130000,425.36289528120244,11.398389023485054,0.28864402421053875,0,5.2702423350555430,0,3.0550459374221295,1,-0.91946349292826546,1,328.14290779376552,2.9166569793302584,6.8361650054894643,1.1542542711842043,0.81506782647875720,0.57073996535656979,0.50120912468160550,-1990.7721765896808,-9.5440353363528546E-003,112.85464715751149,206.33428814756277,246.92944440011905,309.12636267512988,93.779158129340274,87.536666666666662,9.9653333333333194,1.5223359019094778,10.718046937730662,0.18150143197982202
20240527133000,421.39156061742665,11.754562207019653,0.31741433906674726,0,49.549729667107371,0,14.663337602508831,0,-6.5192821234401119,0,337.78252120387884,2.5333444580793865,6.5170218062192395,1.0661571822537890,0.84791961875956534,0.56133263018853830,0.52652449280682712,-245.47092358764081,-7.7402242686459788E-002,118.96344489710485,217.50311871665062,260.29568203218707,325.85930609502225,93.766119334418420,84.856666666666669,10.889999999999986,1.9674531277002347,11.668662468804314,0.42997255904171244
20240527140000,419.70319312153185,11.962783024939155,0.35165982617548691,0,80.709171938903737,0,28.644325549779527,0,-8.9532914405637403,0,346.92816423962017,2.4327002666789062,6.9869036591029170,1.1004391906567772,0.84698225697725005,0.59340383461991419,0.55503183730721484,-176.52724909494594,-0.10763210834255264,118.69404690093023,217.01057325955932,259.70623091791390,325.12138324676590,93.758143824652791,81.857666666666660,11.696333333333314,2.4865173099738058,12.468580258687325,0.38573324593928909
20240527143000,418.76619581026767,12.127449317695346,0.32113435200530666,0,93.216128031966775,0,34.565356030563294,0,-8.9900950715096606,0,347.43606790408688,2.5619203000280502,7.8924250758805004,1.0871044044625162,1.0657683078770379,0.64907141158081871,0.53108767220454300,-133.91037497340702,-0.14188594426513382,106.64828879121276,194.98708563749153,233.34974111152326,292.12618558402113,93.760446257970074,79.073666666666668,12.429333333333318,3.0100026266936810,13.210136935596665,0.36814591230627464
20240527150000,417.88119578725968,12.327323324680293,0.40339289558680691,0,137.30027481366972,0,71.108155280608571,0,-14.363006645715982,0,347.93546676192528,2.4804162458081698,7.4693388818157640,1.1867550246311784,0.80728708617707801,0.61637827245779309,0.59572705695429495,-128.34430847406438,-0.14803928764663132,121.84701748049918,222.77520906740136,266.60502767137183,333.75785814109173,93.784723444227438,77.668999999999997,12.956000000000017,3.3248941686833065,13.778897096422043,0.37334874483539793
20240527153000,416.47938422748916,12.513295684319242,0.43061103503873049,0,172.78498346678700,0,86.446063753679098,0,-16.643810554335577,0,342.88174564503208,2.4384667889451195,7.4146901719350664,1.2195445640402165,0.92575516205320529,0.65372372535105805,0.61602583922929011,-112.79587954391039,-0.16844586944865728,119.40393668641960,218.30847819516862,261.25949163629224,327.06588134955365,93.808344053385412,76.108999999999995,13.500000000000000,3.6857677727149256,14.313457028706864,0.42840310231104106
20240527160000,415.47824840629187,12.436299511512606,0.32767557827944604,1,155.60111913226714,0,90.572435695955832,0,-10.708848847530508,0,11.756736235941105,2.3125363946743254,6.2651865882758759,1.0975970219279647,0.92495608863027012,0.64943523501571854,0.53837008470799230,-83.604043227233063,-0.22726173599473676,107.76828150395158,197.03478951973295,235.80031966769724,295.19401914012082,93.805809056423612,70.602999999999994,14.562000000000012,4.8586682111726009,15.365273824056089,0.67881058770571001
20240527163000,415.35325758368600,11.880962643147063,0.52217382720614181,0,253.91335628880128,0,93.776478690719401,1,-17.230213441243034,0,341.59696183226987,2.7506253235068496,7.9095779173605250,1.3688615576331671,1.5394091286698650,0.80943460688502222,0.68076612120283175,-103.59851415474019,-0.18340031374987292,109.02041547130783,199.32408975970662,238.54002735950598,298.62380806472385,93.829821408046982,62.835999999999999,15.667666666666662,6.5951233051737699,16.250257986541214,0.52998965893012595
20240527170000,414.62524148381237,11.285443227458099,0.47692548135105900,0,148.37531577463693,0,155.97626417509801,0,-15.963746098846062,0,354.19901758599360,2.5419772612272431,8.2969270008467095,1.2985497824274150,1.0658487089349566,0.70063259591151728,0.65111938859085572,-155.14943476313667,-0.12246257957050823,118.08402043136225,215.89525031522544,258.37147421100087,323.45042623770360,93.866906567925355,57.321666666666665,16.306666666666672,7.8892596023307213,16.831557056850897,0.40375773723405400
20240527173000,414.21782580706173,10.966563723738435,0.41645837379401995,0,125.79332858287202,0,102.82766586254641,0,-12.964351512206836,0,357.71543393149858,2.7470482954829443,8.1568550486924902,1.2354320910035712,0.97775203874911032,0.67739568376775794,0.60847004397693061,-149.34197351869784,-0.12722478183684355,114.91383575270304,210.09914164409111,251.43501247846351,314.76679925905933,93.871305008029509,55.447333333333333,16.379333333333307,8.2739509255849946,16.895762429979186,0.39512186664802651
20240527180000,413.78595360580192,10.743938460257672,0.56907225874525413,0,251.53694500491443,0,140.98933539872908,0,-14.482131700111267,0,348.10414178589190,2.7650280873583815,8.8122743013786078,1.4656927452942239,1.4409103931610665,0.75331959072584320,0.71226815910350250,-119.78873803432158,-0.15861257336692342,119.72540494183940,218.89622469311746,261.96287408178688,327.94643270491559,93.863363212666002,51.595666666666666,17.189000000000021,9.4633982589493435,17.557016228596240,0.57690309541978246
20240527183000,414.19706199234565,10.652319039541609,0.48372643732217857,1,266.26373295327187,0,157.14008819108810,0,-14.280417547075443,0,343.81996752949203,2.4892595300761720,8.3575263614334272,1.2800334169670682,1.0985484345086625,0.68677479626998705,0.65708614173629865,-88.848923153130727,-0.21384614833489410,120.86519778278678,220.98012952465115,264.45677592841218,331.06850187973168,93.867323852430545,49.963999999999999,17.562666666666644,10.016141816049894,17.910947150336426,0.61114988903716039
20240527190000,414.04981342613712,10.747635867853054,0.67573595553312604,0,278.24112881938913,0,143.91447450751136,0,-14.311860617436878,0,347.28063628083078,3.1203139273504634,9.7289203360788648,1.5312425435165953,1.3663236589563630,0.83901224819576359,0.77709542779273999,-140.63339235687823,-0.13510304829869041,117.76595061512340,215.31371724797592,257.67552765512102,322.57918373376458,93.861075438585075,49.392000000000003,17.885666666666680,10.338975630749443,18.308282477484852,0.57421553293705341
20240527193000,414.41922328806061,10.417228239567953,0.54996263116142685,0,203.05625056041552,0,166.28526968512651,1,-11.116331990279440,0,326.93039104210357,3.1023436273696174,10.975849339596127,1.6846993446176100,1.5128144652783817,0.87539956528004381,0.70123267345873763,-141.58684915390566,-0.13419325391828515,104.85268434450201,191.70414803023851,229.42090326960582,287.20774681879885,93.857548210800303,47.354666666666667,18.058333333333337,10.872638784742580,18.372382042200798,0.52316113703908640
20240527200000,414.71393314352252,10.244709746772950,0.71210310109695518,0,165.98360606073965,0,146.96768190361976,0,-10.482939763534256,0,336.76329480932088,3.2870659502346875,9.2719742666865024,1.6922686856632616,1.2902131816900184,0.83406397893678375,0.79817867718350621,-255.43373119749080,-7.4383284897130461E-002,120.88586007471351,221.01790678419320,264.50198565963734,331.12509909844374,93.857760437717019,45.994000000000000,18.256666666666661,11.293463592967708,18.575758412679022,0.49078659269039465
20240527203000,415.02364886732113,10.096327982667367,0.62520375819035590,0,144.40761183077566,0,138.60717233925726,0,-10.216974754907051,0,308.25513123699318,3.9814584883205772,10.514830436750630,1.8497463517439074,1.6575599244337489,0.85385716685803881,0.74759804470868674,-241.25713304275527,-7.8754148158731732E-002,112.58518424060274,205.84162399466410,246.33985123727973,308.38826199892492,93.868422136067707,45.849333333333334,18.076333333333309,11.196189225959461,18.346629566616457,0.41069510881752930
20240527210000,414.85712197903547,9.8797837884959367,0.83453191688132322,0,171.28535081723814,0,87.692506296487096,0,-10.220179472517975,0,333.22402778533819,3.3397345233229414,10.530625763799240,1.7406457310242720,1.2775846194405720,0.87810373454010349,0.86437894453550013,-314.37650118376695,-6.0437087150141865E-002,123.64643064721942,226.06511022956064,270.54219910999529,338.68672958048944,93.869293694878479,43.581000000000003,18.539666666666676,12.009243835848833,18.767165782504662,0.38628776542288540
20240527213000,414.69196040894491,10.004542066663804,0.76881009538724854,0,152.98886825770063,0,93.151693412904066,0,-10.733089891389668,0,335.75626965377370,3.2265261705416526,10.229224068579105,1.6286869480637207,1.3790050215955656,0.79381130191281235,0.82972332852211717,-311.33578650612651,-6.1027356389774086E-002,129.72620641975965,237.18087938679369,283.84493578414691,355.34017733636813,93.875833022569452,43.964333333333336,18.601333333333343,11.973787569960775,18.875071458604623,0.35777133829388086
20240527220000,414.45971181821750,10.178749445631661,0.62852184116273013,0,165.77768607419489,0,96.700621170070974,0,-9.9944953313576725,0,330.03976410783707,3.1070011449963508,9.6782609950497278,1.4115634621652287,1.4996816610303096,0.82474528883063769,0.75013350276569224,-212.34556504837823,-8.9476792207415640E-002,116.06729819881120,212.20803887355564,253.95882384226459,317.92631160018703,93.891687920208923,44.824333333333335,18.570333333333338,11.767163835010663,18.811589986406204,0.39693273556642145
20240527223000,415.32092549458099,10.087119093809093,0.56385601828003840,0,106.31409743835225,0,93.098397921345907,0,-7.6806608648243664,0,331.36438430416752,3.8959775054124854,9.5922263892421888,1.5568003436259397,1.4024339623737521,0.85081909022016367,0.70981577072121793,-280.57810414821722,-6.7717329752727692E-002,108.31824992674186,198.04030720002564,237.00366751820863,296.70046785451052,93.911571831597215,45.810333333333332,18.082666666666682,11.208713405862373,18.421592816670739,0.27881743221969707